Regional Weather Roundup
Issued by NWS

Home | Current Version | Previous Version | Text Only | Print | Product List | Glossary Off
Versions: 1 2 3 4 5 6 7 8 9 10 11 12 13 14 15 16 17 18 19 20 21 22 23 24 25 26 27 28 29 30 31 32 33 34 35 36 37 38 39 40 41 42 43 44 45 46 47 48 49 50

000
ASUS43 KLOT 170600
RWRIL

ILLINOIS REGIONAL WEATHER ROUNDUP
NATIONAL WEATHER SERVICE CHICAGO/ROMEOVILLE IL
100 AM CDT WED SEP 17 2014

NOTE: "FAIR" INDICATES FEW OR NO CLOUDS BELOW 12,000 FEET WITH NO
SIGNIFICANT WEATHER AND/OR OBSTRUCTIONS TO VISIBILITY.

* THESE STATIONS ARE NOT UNDER NWS QUALITY CONTROL. THEY ALSO MAY NOT
  REPORT WEATHER SUCH AS PRECIPITATION OR FOG.

ILZ001-002-007-009-015-016-024-170700-
NORTHWEST ILLINOIS

CITY           SKY/WX    TMP DP  RH WIND       PRES   REMARKS
MOLINE         CLEAR     46  43  89 CALM      30.08F
6HR MIN TEMP:  44; 6HR MAX TEMP:  64;

STERLING*      CLEAR     43  39  87 CALM      30.08F
$$

ILZ003-004-008-010-011-017-018-170700-
NORTH CENTRAL ILLINOIS

CITY           SKY/WX    TMP DP  RH WIND       PRES   REMARKS
ROCKFORD       CLEAR     44  41  89 S3        30.10F
6HR MIN TEMP:  44; 6HR MAX TEMP:  61;

FREEPORT*      CLEAR     42  40  93 CALM      30.10F
$$

ILZ005-006-012>014-019>023-170700-
NORTHEAST ILLINOIS

CITY           SKY/WX    TMP DP  RH WIND       PRES   REMARKS
CHICAGO-OHARE  CLEAR     55  47  74 SW3       30.08F
6HR MIN TEMP:  55; 6HR MAX TEMP:  67;

CHICAGO-MIDWAY CLEAR     56  48  74 SE5       30.08F
6HR MIN TEMP:  56; 6HR MAX TEMP:  63;

AURORA         CLEAR     42  39  89 CALM      30.09F
6HR MIN TEMP:  42; 6HR MAX TEMP:  60;

WAUKEGAN       CLEAR     47  45  93 SW3       30.07F
6HR MIN TEMP:  44; 6HR MAX TEMP:  56;

DUPAGE AIRPORT CLEAR     46  43  89 CALM      30.08F
6HR MIN TEMP:  45; 6HR MAX TEMP:  60;

WHEELING       CLEAR     49  45  86 CALM      30.08F
6HR MIN TEMP:  48; 6HR MAX TEMP:  60;

NORTHERLY ISL    N/A     57  50  77 S6          N/A
$$

LMZ740>746-170700-
SOUTHERN LAKE MICHIGAN

STATION/POSITION SKY/WX   TEMP    WIND        PRES    VSBY  WAVE
                          AIR SEA DIR/SP/G                  HT/PER
                          (F)     (DEG/KT/KT) (MB)    (MI)  (FT/S)
SOUTHERN BUOY              60 64  210/  6/  8 1018.8F         1
WAUKEGAN HARBOR            54     230/  4/  5   N/A
HARRISON CRIB              60     140/  6/  7   N/A
BURNHAM HARBOR             56     170/  4       N/A
CALUMET HARBOR             56     190/  3/  4 1017.6F
MICHIGAN CITY              52     120/  7/  9   N/A
MICHIGAN CITY 6N           57 65  150/  6/  8   N/A           1/ 3
ST. JOSEPH                 58 66  140/  6/  8   N/A           1/ 4
$$

ILZ025>027-034>036-040-047-049-050-058-095>099-170700-
WEST-CENTRAL ILLINOIS

CITY           SKY/WX    TMP DP  RH WIND       PRES   REMARKS
QUINCY         CLEAR     54  51  90 S6        30.07F
GALESBURG*     CLEAR     43  42  95 CALM      30.08F
$$

ILZ028>032-037-038-041>044-048-051>054-059>061-170700-
CENTRAL ILLINOIS

CITY           SKY/WX    TMP DP  RH WIND       PRES   REMARKS
DECATUR        CLEAR     47  45  93 E5        30.09F
PEORIA         CLEAR     50  46  86 CALM      30.09S
6HR MIN TEMP:  50; 6HR MAX TEMP:  61;

SPRINGFIELD    CLEAR     48  45  89 CALM      30.09F
6HR MIN TEMP:  48; 6HR MAX TEMP:  63;

TAYLORVILLE    NOT AVBL
$$

ILZ033-039-045-046-055>057-062-063-170700-
EAST-CENTRAL ILLINOIS

CITY           SKY/WX    TMP DP  RH WIND       PRES   REMARKS
CHAMPAIGN      CLEAR     48  46  93 CALM      30.09F
MATTOON        CLEAR     52  49  89 SW5       30.09F
$$

ILZ079-100>102-170700-
SOUTHWEST ILLINOIS

CITY           SKY/WX    TMP DP  RH WIND       PRES   REMARKS
BELLEVILLE     CLEAR     48  48 100 CALM      30.09S FOG
CAHOKIA*       FOG       50  48  93 CALM      30.09F VSB 1/2
$$

ILZ064>066-069>071-074>076-080>082-084>086-088>090-092>094-170700-
SOUTH-CENTRAL ILLINOIS

CITY           SKY/WX    TMP DP  RH WIND       PRES   REMARKS
CARBONDALE     CLEAR     46  45  96 CALM      30.10S FOG
6HR MIN TEMP:  46; 6HR MAX TEMP:  61;

MT. VERNON       N/A     46  43  87 CALM      30.11S VSB 3/4
$$

ILZ067-068-072-073-078-083-087-091-170700-
SOUTHEAST ILLINOIS

CITY           SKY/WX    TMP DP  RH WIND       PRES   REMARKS
LAWRENCEVILLE  FOG       47  46  97 E5        30.10F VSB 1/4
$$

ABBREVIATIONS USED IN REMARKS
   TC - TEMPERATURE IN CELSIUS
  WCI - WIND CHILL INDEX
   HX - HEAT INDEX
  VSB - VISIBILITY
$$



USA.gov is the U.S. government's official web portal to all federal, state and local government web resources and services.